period_start,C,m1,H,J0,J1,J2,J3,J4,J5,JA,JB,JC,JD,JJ,JK,JN,#
2017-12-08 00:03:13,0.02,0.93,0.00,18.64,21.92,25.14,14.36,43.55,1035.66,2048.98,3164.28,2870.98,3266.56,599.96,616.19,13.07,0000 0000 0000 0000 000000
2017-12-08 00:08:15,0.03,0.93,0.00,18.63,21.92,25.14,14.37,43.56,1035.66,2048.97,3163.83,2870.43,3266.00,599.71,615.96,13.12,0000 0000 0000 0000 000000
2017-12-08 00:13:16,0.03,0.93,0.00,18.63,21.92,25.12,14.40,43.60,1035.66,2048.98,3163.05,2870.00,3265.49,600.42,616.65,13.17,0000 0000 0000 0000 000000
2017-12-08 00:18:17,0.01,0.93,0.00,18.61,21.92,25.13,14.35,43.60,1035.66,2048.99,3162.71,2869.87,3265.02,599.59,615.94,13.22,0000 0000 0000 0000 000000
2017-12-08 00:23:19,0.04,0.94,0.00,18.62,21.92,25.13,14.40,43.69,1035.66,2048.99,3162.01,2869.11,3264.70,600.07,616.40,13.27,0000 0000 0000 0000 000000
2017-12-08 00:28:20,0.02,0.94,0.00,18.59,21.92,25.11,14.34,43.74,1035.66,2048.98,3161.28,2868.97,3264.03,599.97,616.34,13.32,0000 0000 0000 0000 000000
2017-12-08 00:33:21,0.04,0.94,0.00,18.60,21.92,25.12,14.30,43.62,1035.70,2048.98,3160.73,2868.33,3263.61,599.73,616.12,13.37,0000 0000 0000 0000 000000
2017-12-08 00:38:23,0.01,0.94,0.00,18.60,21.92,25.12,14.31,43.61,1035.75,2048.98,3160.03,2868.00,3263.02,599.86,616.21,13.42,0000 0000 0000 0000 000000
2017-12-08 00:43:24,0.03,0.94,0.00,18.60,21.92,25.12,14.37,43.68,1035.96,2048.98,3159.46,2867.70,3262.93,600.36,616.91,13.47,0000 0000 0000 0000 000000
2017-12-08 00:48:25,0.02,0.94,0.00,18.60,21.92,25.12,14.38,43.58,1036.11,2048.97,3158.95,2867.04,3262.21,599.89,616.41,13.52,0000 0000 0000 0000 000000
2017-12-08 00:53:27,0.02,0.95,0.00,18.59,21.92,25.10,14.43,43.57,1036.13,2048.98,3158.17,2866.97,3261.86,600.49,617.14,13.57,0000 0000 0000 0000 000000
2017-12-08 00:58:28,0.04,0.95,0.00,18.59,21.92,25.10,14.35,43.58,1036.15,2048.97,3157.76,2866.24,3261.09,599.95,616.65,13.62,0000 0000 0000 0000 000000
2017-12-08 01:03:29,0.01,0.95,0.00,18.59,21.92,25.16,14.42,43.45,1036.15,2048.98,3157.03,2865.99,3260.81,600.28,616.90,13.67,0000 0000 0000 0000 000000
2017-12-08 01:08:30,0.05,0.95,0.00,18.57,21.92,25.12,14.47,43.47,1036.15,2048.97,3156.35,2865.47,3260.05,600.42,617.14,13.72,0000 0000 0000 0000 000000
2017-12-08 01:13:31,0.01,0.95,0.00,18.58,21.92,25.10,14.41,43.54,1036.15,2048.96,3155.82,2865.01,3259.83,600.08,616.83,13.77,0000 0000 0000 0000 000000
2017-12-08 01:18:32,0.04,0.95,0.00,18.56,21.92,25.10,14.44,43.63,1036.15,2048.96,3155.03,2864.70,3259.11,599.92,616.56,13.82,0000 0000 0000 0000 000000
2017-12-08 01:23:34,0.03,0.96,0.00,18.57,21.91,25.10,14.36,43.54,1036.15,2048.97,3154.29,2864.05,3258.71,599.83,616.55,13.87,0000 0000 0000 0000 000000
2017-12-08 01:28:35,0.02,0.96,0.00,18.56,21.91,25.12,14.33,43.61,1036.25,2048.96,3153.78,2863.91,3258.02,599.49,616.42,13.92,0000 0000 0000 0000 000000
2017-12-08 01:33:36,0.04,0.96,0.00,18.56,21.90,25.12,14.37,43.76,1036.35,2048.95,3153.03,2863.14,3257.63,599.68,616.48,13.97,0000 0000 0000 0000 000000
2017-12-08 01:38:37,0.02,0.96,0.00,18.54,21.90,25.10,14.36,43.74,1036.32,2048.95,3152.24,2862.96,3257.02,599.70,616.58,14.02,0000 0000 0000 0000 000000
2017-12-08 01:43:38,0.04,0.96,0.00,18.54,21.89,25.12,14.40,43.73,1036.39,2048.96,3151.73,2862.25,3256.51,599.79,616.69,14.07,0000 0000 0000 0000 000000
2017-12-08 01:48:40,0.01,0.96,0.00,18.54,21.89,25.08,14.39,43.56,1036.53,2048.95,3151.01,2861.98,3256.01,600.17,617.13,14.12,0000 0000 0000 0000 000000
2017-12-08 01:53:41,0.03,0.96,0.00,18.54,21.89,25.07,14.36,43.52,1036.53,2048.97,3150.33,2861.65,3255.67,599.85,616.85,14.17,0000 0000 0000 0000 000000
2017-12-08 01:58:42,0.02,0.97,0.00,18.52,21.89,25.10,14.41,43.58,1036.60,2048.96,3149.91,2861.03,3255.02,600.02,617.09,14.22,0000 0000 0000 0000 000000
2017-12-08 02:03:43,0.02,0.97,0.00,18.53,21.89,25.09,14.36,43.58,1036.61,2048.97,3149.08,2860.94,3254.70,599.39,616.33,14.27,0000 0000 0000 0000 000000
2017-12-08 02:08:45,0.04,0.97,0.00,18.52,21.88,25.09,14.37,43.43,1036.59,2048.97,3148.52,2860.22,3254.03,599.96,616.93,14.32,0000 0000 0000 0000 000000
2017-12-08 02:13:46,0.01,0.97,0.00,18.52,21.88,25.08,14.34,43.52,1036.62,2048.98,3148.00,2860.00,3253.58,600.11,617.34,14.37,0000 0000 0000 0000 000000
2017-12-08 02:18:47,0.04,0.97,0.00,18.50,21.87,25.09,14.30,43.53,1036.64,2048.98,3147.25,2859.66,3253.04,599.82,616.93,14.42,0000 0000 0000 0000 000000
2017-12-08 02:23:48,0.02,0.97,0.00,18.50,21.87,25.07,14.41,43.57,1036.64,2048.97,3146.68,2859.02,3252.81,600.16,617.41,14.47,0000 0000 0000 0000 000000
2017-12-08 02:28:50,0.02,0.98,0.00,18.49,21.87,25.08,14.31,43.44,1036.64,2048.98,3145.99,2858.91,3252.07,599.83,616.86,14.52,0000 0000 0000 0000 000000
2017-12-08 02:33:51,0.04,0.98,0.00,18.49,21.87,25.08,14.40,43.52,1036.64,2048.97,3145.21,2858.17,3251.80,600.14,617.27,14.57,0000 0000 0000 0000 000000
2017-12-08 02:38:53,0.02,0.98,0.00,18.49,21.87,25.09,14.34,43.43,1036.64,2048.98,3144.72,2857.99,3251.06,600.00,617.11,14.62,0000 0000 0000 0000 000000
2017-12-08 02:43:54,0.04,0.98,0.00,18.49,21.87,25.05,14.40,43.56,1036.65,2048.98,3143.97,2857.26,3250.74,600.24,617.54,14.67,0000 0000 0000 0000 000000
2017-12-08 02:48:56,0.02,0.98,0.00,18.48,21.87,25.05,14.41,43.60,1036.64,2048.98,3143.22,2857.00,3250.05,600.15,617.35,14.72,0000 0000 0000 0000 000000
2017-12-08 02:53:57,0.03,0.98,0.00,18.48,21.87,25.03,14.43,43.63,1036.65,2048.99,3142.72,2856.75,3249.78,600.24,617.52,14.78,0000 0000 0000 0000 000000
2017-12-08 02:58:58,0.03,0.99,0.00,18.47,21.86,25.03,14.41,43.55,1036.67,2048.99,3141.99,2856.07,3249.06,600.18,617.39,14.83,0000 0000 0000 0000 000000
2017-12-08 03:03:59,0.03,0.99,0.00,18.47,21.85,25.03,14.34,43.57,1036.79,2048.98,3141.15,2855.88,3248.67,600.20,617.49,14.88,0000 0000 0000 0000 000000
2017-12-08 03:09:00,0.04,0.99,0.00,18.47,21.85,25.04,14.38,43.59,1036.99,2048.99,3140.34,2855.06,3247.94,599.73,617.16,14.93,0000 0000 0000 0000 000000
2017-12-08 03:14:01,0.19,1.00,0.00,18.47,21.84,25.04,14.43,43.59,1037.05,2048.99,3137.13,2853.24,3245.78,600.02,617.60,14.98,0000 0000 0000 0000 000000
2017-12-08 03:19:03,0.22,1.01,0.00,18.47,21.84,25.04,14.40,43.52,1037.06,2048.99,3132.58,2850.36,3242.54,600.08,617.56,15.03,0000 0000 0000 0000 000000
2017-12-08 03:24:04,0.34,1.02,0.00,18.45,21.84,25.03,14.44,43.58,1037.09,2048.99,3125.91,2846.26,3237.98,600.14,617.70,15.08,0000 0000 0000 0000 000000
2017-12-08 03:29:05,0.38,1.04,0.00,18.46,21.84,25.02,14.38,43.64,1037.11,2048.99,3117.30,2841.06,3232.18,599.96,617.43,15.13,0000 0000 0000 0000 000000
2017-12-08 03:34:06,0.21,1.06,0.00,18.46,21.84,25.01,14.34,43.52,1037.12,2048.99,3112.01,2837.74,3228.53,600.12,617.67,15.18,0000 0000 0000 0000 000000
2017-12-08 03:39:08,0.12,1.06,0.00,18.46,21.84,24.99,14.43,43.67,1037.13,2048.99,3109.13,2835.97,3226.53,600.04,617.44,15.23,0000 0000 0000 0000 000000
2017-12-08 03:44:09,0.18,1.07,0.00,18.46,21.83,25.00,14.41,43.65,1037.13,2048.99,3105.41,2833.81,3224.07,600.03,617.59,15.28,0000 0000 0000 0000 000000
2017-12-08 03:49:11,0.18,1.08,0.00,18.47,21.82,25.00,14.36,43.67,1037.14,2048.99,3101.46,2831.58,3221.47,599.95,617.46,15.33,0000 0000 0000 0000 000000
2017-12-08 03:54:12,0.19,1.09,0.00,18.47,21.82,25.01,14.37,43.50,1037.15,2048.99,3097.21,2829.22,3218.84,600.27,617.78,15.38,0000 0000 0000 0000 000000
2017-12-08 03:59:13,0.20,1.10,0.00,18.47,21.82,25.04,14.38,43.67,1037.15,2048.99,3092.73,2826.71,3216.05,600.11,617.64,15.43,0000 0000 0000 0000 000000
2017-12-08 04:04:15,0.17,1.11,0.00,18.46,21.82,25.02,14.38,43.53,1037.20,2048.99,3088.89,2824.43,3213.49,600.16,617.73,15.48,0000 0000 0000 0000 000000
2017-12-08 04:09:16,0.14,1.12,0.00,18.47,21.82,24.98,14.41,43.64,1037.32,2048.99,3085.63,2822.51,3211.26,599.82,617.39,15.53,0000 0000 0000 0000 000000
2017-12-08 04:14:17,0.22,1.13,0.00,18.46,21.82,25.00,14.39,43.64,1037.46,2048.99,3081.54,2820.00,3208.37,599.87,617.65,15.58,0000 0000 0000 0000 000000
2017-12-08 04:19:19,0.25,1.14,0.00,18.47,21.82,25.01,14.35,43.63,1037.49,2048.99,3076.51,2816.79,3204.75,599.82,617.80,15.63,0000 0000 0000 0000 000000
2017-12-08 04:24:20,0.25,1.15,0.00,18.46,21.82,24.99,14.40,43.60,1037.53,2048.99,3071.58,2813.43,3200.97,600.04,617.69,15.68,0000 0000 0000 0000 000000
2017-12-08 04:29:21,0.18,1.16,0.00,18.46,21.82,24.97,14.39,43.58,1037.59,2048.98,3067.70,2810.64,3198.01,599.87,617.67,15.73,0000 0000 0000 0000 000000
2017-12-08 04:34:22,0.11,1.17,0.00,18.44,21.82,25.00,14.49,43.77,1037.61,2048.98,3065.34,2808.94,3196.10,600.49,618.30,15.78,0000 0000 0000 0000 000000
2017-12-08 04:39:24,0.10,1.17,0.00,18.46,21.82,24.99,14.34,43.66,1037.61,2048.99,3063.23,2807.53,3194.47,599.51,617.36,15.83,0000 0000 0000 0000 000000
2017-12-08 04:44:25,0.09,1.18,0.00,18.45,21.81,24.99,14.33,43.67,1037.61,2048.98,3061.06,2806.16,3192.88,599.99,617.83,15.88,0000 0000 0000 0000 000000
2017-12-08 04:49:27,0.10,1.19,0.00,18.45,21.80,24.97,14.45,43.66,1037.62,2048.99,3059.00,2804.84,3191.49,600.30,618.11,15.93,0000 0000 0000 0000 000000
2017-12-08 04:54:27,0.09,1.19,0.00,18.44,21.80,24.99,14.39,43.62,1037.62,2048.98,3056.94,2803.59,3190.01,600.18,618.16,15.98,0000 0000 0000 0000 000000
2017-12-08 04:59:29,0.10,1.20,0.00,18.44,21.79,24.97,14.34,43.60,1037.68,2048.98,3054.86,2802.31,3188.52,600.11,618.17,16.03,0000 0000 0000 0000 000000
2017-12-08 05:04:30,0.08,1.20,0.00,18.44,21.79,24.97,14.36,43.46,1037.76,2048.97,3052.92,2801.18,3187.25,599.99,617.93,16.08,0000 0000 0000 0000 000000
2017-12-08 05:09:31,0.07,1.21,0.00,18.44,21.79,25.00,14.37,43.50,1037.79,2048.98,3051.29,2800.14,3186.04,599.89,617.82,16.13,0000 0000 0000 0000 000000
2017-12-08 05:14:32,0.06,1.21,0.00,18.44,21.79,24.98,14.40,43.51,1037.97,2048.97,3049.89,2799.32,3185.09,600.04,618.07,16.18,0000 0000 0000 0000 000000
2017-12-08 05:19:34,0.06,1.21,0.00,18.45,21.79,24.97,14.29,43.56,1038.06,2048.99,3048.67,2798.57,3184.21,599.43,617.47,16.23,0000 0000 0000 0000 000000
2017-12-08 05:24:35,0.04,1.21,0.00,18.44,21.79,24.97,14.46,43.52,1038.10,2048.99,3047.61,2797.97,3183.52,600.28,618.36,16.28,0000 0000 0000 0000 000000
2017-12-08 05:29:36,0.06,1.22,0.00,18.45,21.79,24.98,14.40,43.41,1038.10,2048.99,3046.30,2797.12,3182.62,599.71,617.83,16.33,0000 0000 0000 0000 000000
2017-12-08 05:34:38,0.07,1.22,0.00,18.43,21.79,25.01,14.41,43.43,1038.10,2048.99,3044.81,2796.25,3181.65,599.89,618.08,16.38,0000 0000 0000 0000 000000
2017-12-08 05:39:39,0.07,1.22,0.00,18.44,21.79,24.98,14.42,43.52,1038.10,2048.99,3043.42,2795.45,3180.65,600.24,618.42,16.43,0000 0000 0000 0000 000000
2017-12-08 05:44:40,0.08,1.23,0.00,18.42,21.79,24.97,14.34,43.48,1038.10,2048.99,3041.71,2794.41,3179.51,599.85,618.03,16.48,0000 0000 0000 0000 000000
2017-12-08 05:49:42,0.07,1.23,0.00,18.42,21.79,24.97,14.39,43.40,1038.10,2048.99,3040.03,2793.36,3178.32,599.90,618.09,16.53,0000 0000 0000 0000 000000
2017-12-08 05:54:43,0.07,1.24,0.00,18.42,21.79,24.97,14.47,43.38,1038.11,2048.99,3038.59,2792.52,3177.22,600.23,618.27,16.58,0000 0000 0000 0000 000000
2017-12-08 05:59:44,0.04,1.24,0.00,18.44,21.79,24.96,14.36,43.42,1038.11,2048.99,3037.45,2791.93,3176.49,599.95,618.03,16.63,0000 0000 0000 0000 000000
2017-12-08 06:04:46,0.06,1.24,0.00,18.44,21.79,24.96,14.35,43.52,1038.11,2048.99,3036.33,2791.08,3175.63,599.88,618.03,16.68,0000 0000 0000 0000 000000
2017-12-08 06:09:47,0.07,1.24,0.00,18.44,21.79,24.95,14.43,43.58,1038.13,2048.98,3034.87,2790.14,3174.65,600.04,618.22,16.73,0000 0000 0000 0000 000000
2017-12-08 06:14:49,0.07,1.25,0.00,18.44,21.79,24.99,14.33,43.45,1038.14,2048.98,3033.43,2789.25,3173.56,599.65,617.86,16.78,0000 0000 0000 0000 000000
2017-12-08 06:19:50,0.07,1.25,0.00,18.44,21.79,24.97,14.38,43.51,1038.18,2048.98,3031.91,2788.38,3172.48,600.00,618.10,16.83,0000 0000 0000 0000 000000
2017-12-08 06:24:51,0.07,1.26,0.00,18.45,21.79,24.96,14.43,43.56,1038.22,2048.97,3030.31,2787.42,3171.39,600.28,618.48,16.88,0000 0000 0000 0000 000000
2017-12-08 06:29:53,0.07,1.26,0.00,18.44,21.79,24.97,14.36,43.57,1038.30,2048.98,3028.75,2786.56,3170.38,599.92,618.17,16.93,0000 0000 0000 0000 000000
2017-12-08 06:34:54,0.06,1.26,0.00,18.45,21.79,24.96,14.34,43.45,1038.52,2048.97,3027.29,2785.63,3169.37,599.72,618.16,16.98,0000 0000 0000 0000 000000
2017-12-08 06:39:56,0.08,1.27,0.00,18.44,21.79,24.96,14.42,43.58,1038.55,2048.98,3025.65,2784.62,3168.21,600.10,618.55,17.03,0000 0000 0000 0000 000000
2017-12-08 06:44:57,0.05,1.27,0.00,18.46,21.79,24.97,14.41,43.59,1038.57,2048.98,3024.22,2783.82,3167.21,599.87,618.27,17.08,0000 0000 0000 0000 000000
2017-12-08 06:49:58,0.07,1.27,0.00,18.44,21.79,24.96,14.43,43.61,1038.57,2048.97,3022.73,2782.86,3166.10,600.14,618.49,17.13,0000 0000 0000 0000 000000
2017-12-08 06:55:00,0.06,1.28,0.00,18.46,21.79,24.98,14.43,43.67,1038.57,2048.96,3021.39,2782.04,3165.16,600.13,618.41,17.18,0000 0000 0000 0000 000000
2017-12-08 07:00:00,0.06,1.28,0.00,18.45,21.79,24.97,14.35,43.59,1038.52,2048.96,3020.24,2781.17,3164.29,600.07,618.50,17.23,0000 0000 0000 0000 000000
2017-12-08 07:05:02,0.05,1.28,0.00,18.47,21.79,24.98,14.40,43.52,1038.57,2048.98,3019.21,2780.73,3163.61,599.97,618.42,17.28,0000 0000 0000 0000 000000
2017-12-08 07:10:03,0.04,1.29,0.00,18.46,21.79,24.96,14.39,43.58,1038.59,2048.98,3018.19,2780.03,3162.97,600.21,618.56,17.33,0000 0000 0000 0000 000000
2017-12-08 07:15:04,0.05,1.29,0.00,18.47,21.79,24.98,14.36,43.57,1038.59,2048.97,3017.30,2779.56,3162.12,600.08,618.41,17.38,0000 0000 0000 0000 000000
2017-12-08 07:20:06,0.03,1.29,0.00,18.47,21.79,24.98,14.49,43.55,1038.59,2048.97,3016.47,2779.01,3161.68,600.27,618.62,17.43,0000 0000 0000 0000 000000
2017-12-08 07:25:07,0.05,1.29,0.00,18.47,21.79,24.97,14.37,43.59,1038.60,2048.97,3015.55,2778.39,3161.01,599.78,618.16,17.48,0000 0000 0000 0000 000000
2017-12-08 07:30:08,0.04,1.30,0.00,18.47,21.79,24.96,14.41,43.58,1038.62,2048.96,3014.36,2777.86,3160.20,600.02,618.57,17.53,0000 0000 0000 0000 000000
2017-12-08 07:35:09,0.06,1.30,0.00,18.47,21.80,24.97,14.38,43.60,1038.70,2048.97,3013.05,2777.05,3159.40,600.06,618.51,17.58,0000 0000 0000 0000 000000
2017-12-08 07:40:11,0.06,1.30,0.00,18.46,21.80,24.99,14.48,43.46,1038.95,2048.95,3011.79,2776.30,3158.59,600.23,618.84,17.63,0000 0000 0000 0000 000000
2017-12-08 07:45:12,0.04,1.30,0.00,18.46,21.80,24.98,14.45,43.56,1039.02,2048.97,3010.54,2775.77,3157.86,600.11,618.72,17.69,0000 0000 0000 0000 000000
2017-12-08 07:50:13,0.04,1.31,0.00,18.47,21.80,24.98,14.49,43.60,1038.99,2048.97,3009.64,2775.04,3157.07,599.87,618.46,17.74,0000 0000 0000 0000 000000
2017-12-08 07:55:15,0.05,1.31,0.00,18.47,21.81,24.99,14.38,43.49,1039.04,2048.99,3008.73,2774.65,3156.41,600.42,619.06,17.79,0000 0000 0000 0000 000000
2017-12-08 08:00:16,0.03,1.31,0.00,18.47,21.82,24.99,14.35,43.49,1039.08,2048.98,3007.85,2774.01,3155.91,599.85,618.45,17.84,0000 0000 0000 0000 000000
2017-12-08 08:05:17,0.05,1.31,0.00,18.47,21.82,24.98,14.53,43.48,1039.08,2048.98,3006.97,2773.34,3155.08,600.35,619.04,17.89,0000 0000 0000 0000 000000
2017-12-08 08:10:18,0.03,1.32,0.00,18.48,21.82,24.97,14.41,43.52,1039.08,2048.97,3006.07,2772.97,3154.51,599.73,618.39,17.94,0000 0000 0000 0000 000000
2017-12-08 08:15:20,0.04,1.32,0.00,18.49,21.82,24.97,14.38,43.54,1039.08,2048.97,3005.25,2772.27,3153.92,600.07,618.59,17.99,0000 0000 0000 0000 000000
2017-12-08 08:20:21,0.03,1.32,0.00,18.48,21.82,24.99,14.43,43.46,1039.08,2048.97,3004.47,2771.98,3153.15,599.95,618.67,18.04,0000 0000 0000 0000 000000
2017-12-08 08:25:22,0.05,1.32,0.00,18.49,21.82,24.99,14.43,43.53,1039.09,2048.96,3003.64,2771.26,3152.70,599.85,618.51,18.09,0000 0000 0000 0000 000000
2017-12-08 08:30:24,0.01,1.32,0.00,18.48,21.83,24.97,14.51,43.58,1039.09,2048.96,3002.94,2770.97,3152.03,600.29,618.96,18.14,0000 0000 0000 0000 000000
2017-12-08 08:35:25,0.05,1.33,0.00,18.49,21.84,24.99,14.39,43.42,1039.09,2048.96,3002.07,2770.26,3151.51,599.89,618.52,18.19,0000 0000 0000 0000 000000
2017-12-08 08:40:26,0.03,1.33,0.00,18.49,21.84,24.98,14.35,43.45,1039.22,2048.97,3001.22,2769.90,3150.93,599.75,618.44,18.24,0000 0000 0000 0000 000000
2017-12-08 08:45:27,0.05,1.33,0.00,18.50,21.84,24.98,14.49,43.54,1039.33,2048.95,3000.41,2769.10,3150.10,600.49,619.25,18.29,0000 0000 0000 0000 000000
2017-12-08 08:50:28,0.03,1.33,0.00,18.50,21.84,24.97,14.37,43.48,1039.42,2048.96,2999.69,2768.90,3149.62,600.14,618.91,18.34,0000 0000 0000 0000 000000
2017-12-08 08:55:29,0.04,1.33,0.00,18.50,21.85,25.01,14.35,43.44,1039.42,2048.94,2998.88,2768.10,3149.01,599.81,618.64,18.39,0000 0000 0000 0000 000000
2017-12-08 09:00:30,0.03,1.34,0.00,18.51,21.85,24.98,14.40,43.48,1039.50,2048.96,2998.03,2767.91,3148.38,599.90,618.63,18.44,0000 0000 0000 0000 000000
2017-12-08 09:05:31,0.05,1.34,0.00,18.50,21.86,25.00,14.37,43.48,1039.53,2048.95,2997.24,2767.13,3147.91,599.97,618.78,18.49,0000 0000 0000 0000 000000
2017-12-08 09:10:33,0.06,1.34,0.00,18.52,21.87,25.01,14.41,43.44,1039.53,2048.93,2996.16,2766.44,3147.07,599.87,618.56,18.54,0000 0000 0000 0000 000000
2017-12-08 09:15:34,0.03,1.34,0.00,18.51,21.87,25.01,14.45,43.48,1039.52,2048.91,2995.15,2766.00,3146.43,600.21,619.06,18.59,0000 0000 0000 0000 000000
2017-12-08 09:20:35,0.04,1.34,0.00,18.52,21.87,25.01,14.42,43.66,1039.51,2048.88,2994.55,2765.55,3145.94,600.16,618.99,18.64,0000 0000 0000 0000 000000
2017-12-08 09:25:36,0.04,1.35,0.00,18.51,21.87,25.01,14.41,43.59,1039.54,2048.91,2993.72,2765.01,3145.12,600.04,618.91,18.69,0000 0000 0000 0000 000000
2017-12-08 09:30:38,0.06,1.35,0.00,18.52,21.87,25.03,14.43,43.51,1039.55,2048.95,2992.59,2764.37,3144.51,600.12,618.99,18.74,0000 0000 0000 0000 000000
2017-12-08 09:35:39,0.04,1.35,0.00,18.52,21.87,25.02,14.50,43.51,1039.56,2048.93,2991.65,2763.72,3143.73,599.80,618.64,18.79,0000 0000 0000 0000 000000
2017-12-08 09:40:40,0.04,1.36,0.00,18.52,21.87,25.01,14.33,43.46,1039.56,2048.93,2990.54,2763.02,3142.96,599.54,618.43,18.84,0000 0000 0000 0000 000000
2017-12-08 09:45:42,0.06,1.36,0.00,18.52,21.88,25.01,14.50,43.49,1039.57,2048.91,2989.67,2762.34,3142.12,600.27,619.12,18.89,0000 0000 0000 0000 000000
2017-12-08 09:50:43,0.02,1.36,0.00,18.53,21.89,25.02,14.35,43.54,1039.57,2048.94,2988.98,2761.99,3141.83,599.83,618.70,18.94,0000 0000 0000 0000 000000
2017-12-08 09:55:44,0.04,1.36,0.00,18.52,21.89,25.02,14.40,43.64,1039.57,2048.90,2988.15,2761.38,3141.07,599.88,618.76,18.99,0000 0000 0000 0000 000000
2017-12-08 10:00:46,0.03,1.36,0.00,18.53,21.89,25.02,14.40,43.60,1039.57,2048.92,2987.55,2761.00,3140.64,600.01,618.84,19.04,0000 0000 0000 0000 000000
2017-12-08 10:05:47,0.04,1.36,0.00,18.54,21.89,25.04,14.40,43.59,1039.58,2048.86,2986.77,2760.44,3140.00,599.83,618.62,19.09,0000 0000 0000 0000 000000
2017-12-08 10:10:48,0.02,1.37,0.00,18.55,21.90,25.03,14.41,43.65,1039.60,2048.83,2986.01,2759.99,3139.30,599.64,618.39,19.14,0000 0000 0000 0000 000000
2017-12-08 10:15:49,0.05,1.37,0.00,18.56,21.91,25.01,14.46,43.67,1039.60,2048.86,2985.17,2759.51,3138.89,600.15,618.87,19.19,0000 0000 0000 0000 000000
2017-12-08 10:20:50,0.03,1.37,0.00,18.56,21.92,25.05,14.39,43.52,1039.58,2048.86,2984.50,2759.01,3138.09,599.90,618.65,19.24,0000 0000 0000 0000 000000
2017-12-08 10:25:51,0.01,1.37,0.00,18.55,21.92,25.03,14.39,43.67,1039.60,2048.60,2983.85,2758.41,3137.71,599.96,618.75,19.29,0000 0000 0000 0000 000000
2017-12-08 10:30:53,0.02,1.37,0.00,18.56,21.92,25.06,14.47,43.66,1039.61,2048.49,2983.05,2758.00,3137.03,599.91,618.78,19.34,0000 0000 0000 0000 000000
2017-12-08 10:35:54,0.05,1.37,0.00,18.57,21.93,25.02,14.46,43.64,1039.60,2048.38,2982.22,2757.44,3136.44,599.70,618.46,19.39,0000 0000 0000 0000 000000
2017-12-08 10:40:56,0.03,1.38,0.00,18.57,21.94,25.04,14.38,43.65,1039.61,2048.31,2981.52,2757.00,3135.95,600.06,618.84,19.44,0000 0000 0000 0000 000000
2017-12-08 10:45:57,0.02,1.38,0.00,18.57,21.94,25.03,14.42,43.75,1039.60,2048.23,2980.78,2756.37,3135.17,600.20,619.10,19.49,0000 0000 0000 0000 000000
2017-12-08 10:50:58,0.01,1.38,0.00,18.58,21.94,25.08,14.33,43.66,1039.62,2048.10,2980.03,2755.99,3134.97,599.83,618.46,19.54,0000 0000 0000 0000 000000
2017-12-08 10:56:00,0.05,1.38,0.00,18.59,21.94,25.08,14.43,43.76,1039.68,2048.08,2979.18,2755.34,3134.17,600.15,618.92,19.59,0000 0000 0000 0000 000000
2017-12-08 11:01:01,0.02,1.38,0.00,18.60,21.95,25.04,14.43,43.64,1039.73,2048.12,2978.63,2755.00,3133.87,599.88,618.71,19.64,0000 0000 0000 0000 000000
2017-12-08 11:06:02,0.04,1.39,0.00,18.59,21.96,25.06,14.41,43.72,1039.81,2048.09,2977.93,2754.55,3133.09,600.28,619.12,19.69,0000 0000 0000 0000 000000
2017-12-08 11:11:04,0.03,1.39,0.00,18.61,21.97,25.05,14.46,43.67,1039.85,2048.07,2977.09,2754.01,3132.75,600.20,619.05,19.74,0000 0000 0000 0000 000000
2017-12-08 11:16:05,0.04,1.39,0.00,18.62,21.97,25.09,14.46,43.67,1039.84,2048.12,2976.43,2753.61,3132.04,600.23,619.00,19.79,0000 0000 0000 0000 000000
2017-12-08 11:21:06,0.02,1.39,0.00,18.62,21.97,25.07,14.41,43.65,1039.95,2048.06,2975.78,2753.01,3131.58,600.03,618.84,19.84,0000 0000 0000 0000 000000
2017-12-08 11:26:07,0.03,1.39,0.00,18.62,21.97,25.07,14.40,43.73,1039.97,2048.08,2975.01,2752.64,3131.01,599.99,618.93,19.89,0000 0000 0000 0000 000000
2017-12-08 11:31:09,0.04,1.40,0.00,18.63,21.97,25.09,14.36,43.58,1039.93,2048.07,2974.23,2752.02,3130.31,599.92,618.80,19.94,0000 0000 0000 0000 000000
2017-12-08 11:36:10,0.04,1.40,0.00,18.63,21.99,25.10,14.25,43.58,1039.92,2048.05,2973.53,2751.64,3129.71,599.56,618.20,19.99,0000 0000 0000 0000 000000
2017-12-08 11:41:11,0.02,1.40,0.00,18.64,21.99,25.10,14.40,43.57,1039.90,2048.01,2972.76,2751.02,3129.02,600.13,618.93,20.04,0000 0000 0000 0000 000000
2017-12-08 11:46:12,0.04,1.40,0.00,18.64,21.99,25.10,14.41,43.58,1039.78,2048.01,2972.01,2750.74,3128.36,599.84,618.59,20.09,0000 0000 0000 0000 000000
2017-12-08 11:51:13,0.04,1.40,0.00,18.67,22.01,25.14,14.41,43.60,1039.79,2048.01,2971.24,2750.04,3127.94,599.99,618.67,20.14,0000 0000 0000 0000 000000
2017-12-08 11:56:14,0.05,1.40,0.00,18.67,22.02,25.11,14.44,43.52,1039.82,2048.01,2970.47,2749.71,3127.13,600.44,619.13,20.19,0000 0000 0000 0000 000000
2017-12-08 12:01:15,0.02,1.41,0.00,18.68,22.02,25.14,14.51,43.52,1039.71,2048.00,2969.85,2749.06,3126.74,599.93,618.41,20.24,0000 0000 0000 0000 000000
2017-12-08 12:06:16,0.04,1.41,0.00,18.69,22.03,25.13,14.43,43.52,1039.69,2048.00,2969.02,2748.67,3126.04,600.09,618.69,20.29,0000 0000 0000 0000 000000
2017-12-08 12:11:17,0.04,1.41,0.00,18.69,22.04,25.13,14.39,43.49,1039.62,2048.00,2968.22,2748.03,3125.47,599.96,618.53,20.34,0000 0000 0000 0000 000000
2017-12-08 12:16:19,0.03,1.41,0.00,18.70,22.04,25.13,14.44,43.54,1039.60,2048.00,2967.55,2747.75,3124.97,600.05,618.74,20.39,0000 0000 0000 0000 000000
2017-12-08 12:21:20,0.04,1.42,0.00,18.71,22.05,25.14,14.41,43.50,1039.59,2047.99,2966.85,2747.05,3124.19,599.78,618.30,20.44,0000 0000 0000 0000 000000
2017-12-08 12:26:21,0.04,1.42,0.00,18.72,22.07,25.17,14.45,43.47,1039.59,2047.98,2966.03,2746.67,3123.80,600.14,618.60,20.49,0000 0000 0000 0000 000000
2017-12-08 12:31:22,0.04,1.42,0.00,18.74,22.07,25.16,14.35,43.50,1039.59,2047.98,2965.28,2746.03,3123.03,599.89,618.39,20.54,0000 0000 0000 0000 000000
2017-12-08 12:36:24,0.04,1.42,0.00,18.74,22.08,25.15,14.31,43.49,1039.58,2047.99,2964.71,2745.66,3122.49,599.71,618.14,20.59,0000 0000 0000 0000 000000
2017-12-08 12:41:25,0.02,1.42,0.00,18.75,22.09,25.17,14.41,43.57,1039.57,2047.98,2963.91,2745.03,3121.98,599.78,618.14,20.64,0000 0000 0000 0000 000000
2017-12-08 12:46:26,0.05,1.42,0.00,18.77,22.09,25.17,14.24,43.57,1039.57,2047.97,2963.08,2744.60,3121.20,599.67,617.91,20.69,0000 0000 0000 0000 000000
2017-12-08 12:51:27,0.03,1.43,0.00,18.77,22.10,25.18,14.52,43.64,1039.57,2047.96,2962.40,2744.01,3120.80,600.45,618.75,20.74,0000 0000 0000 0000 000000
2017-12-08 12:56:29,0.04,1.43,0.00,18.79,22.12,25.20,14.38,43.59,1039.57,2047.96,2961.75,2743.67,3120.06,599.94,618.19,20.79,0000 0000 0000 0000 000000